DateTimeUTC,F1_A11,F1_S11,BsB_S11,BsG_S11,BsR_S11,BbsB_S11,BbsG_S11,BbsR_S11,BaB_A11,BaG_A11,BaR_A11,Tu_S11,T_S11,Uu_S11,U_S11,P_S11,T1_A11
2021-12-08T01:00:00Z,00000200,21000000,,,,,,,-000.17,0000.30,-000.30,20.4,27.3,,00.0,0637.5,31.2
2021-12-08T01:01:00Z,00000200,21000000,,,,,,,-000.09,0000.40,0000.32,20.4,27.3,,00.0,0637.5,31.2
2021-12-08T01:02:00Z,00000200,21000000,,,,,,,0000.30,0000.04,-000.34,20.4,27.3,,00.0,0637.5,31.2
2021-12-08T01:03:00Z,00000200,61000000,,,,,,,0000.02,0000.12,0000.25,20.4,27.3,,00.0,0637.5,31.1
2021-12-08T01:04:00Z,00000200,41000000,0000.02,-000.03,-000.10,-000.58,-000.11,0000.13,0000.22,-000.11,0000.47,20.5,27.1,,00.0,0638.3,31.1
2021-12-08T01:05:00Z,00000200,01000000,0000.36,0000.07,0000.15,0000.26,0000.08,0000.15,-000.15,-000.22,-000.76,20.4,27.1,,00.0,0638.3,31.1
2021-12-08T01:06:00Z,00000200,01000000,0000.28,0000.22,-000.01,0000.30,0000.42,0000.19,-000.08,0000.27,0000.36,20.4,27.0,,00.0,0638.3,31.1
2021-12-08T01:07:00Z,00000200,01000000,0000.86,0000.21,-000.14,0000.37,0000.13,0000.01,-000.11,-000.45,-000.02,20.3,26.9,,00.0,0638.3,31.1
2021-12-08T01:08:00Z,00000200,01000000,0000.02,0000.05,0000.00,0000.63,0000.39,0000.25,0000.05,0000.03,-000.35,20.3,26.9,,00.0,0638.3,31.1
2021-12-08T01:09:00Z,00000200,01000000,0000.53,0000.41,0000.02,-000.02,-000.11,-000.10,0000.16,0000.30,0000.02,20.3,26.9,,00.0,0638.3,31.1
2021-12-08T01:10:00Z,00000200,01000000,0000.58,0000.45,0000.02,0000.49,0000.03,0000.31,0000.27,0000.18,0000.34,20.4,26.9,,00.0,0638.3,31.1
2021-12-08T01:11:00Z,00000200,01000000,-000.26,-000.05,-000.48,0000.33,0000.02,-000.01,-000.09,0000.61,0000.56,20.4,26.9,,00.0,0638.3,31.1
2021-12-08T01:12:00Z,00000200,01000000,0000.27,0000.40,-000.10,0000.72,-000.03,-000.04,0000.07,-000.35,-000.24,20.4,26.9,,00.0,0638.3,31.1
2021-12-08T01:13:00Z,00000200,01000000,0000.19,0000.27,0000.30,0000.65,0000.39,0000.19,0000.37,0000.05,-000.09,20.5,26.9,,00.0,0638.3,31.1
2021-12-08T01:14:00Z,00000200,01000000,0000.27,0000.32,-000.43,-000.03,0000.23,-000.23,0000.27,0000.15,0000.19,20.5,26.9,,00.0,0638.3,31.1
2021-12-08T01:15:00Z,00000200,01000000,-000.18,0000.08,-000.02,0000.58,0000.22,-000.07,-000.07,0000.27,0000.06,20.6,26.9,,00.0,0638.3,31.1
2021-12-08T01:16:00Z,00000200,01000000,0000.51,0000.14,0000.01,0000.68,0000.11,0000.16,-000.12,-000.39,0000.23,20.6,27.0,,00.0,0638.4,31.1
2021-12-08T01:17:00Z,00000200,01000000,0000.57,0000.33,-000.23,0000.18,-000.29,0000.08,0000.21,0000.37,-000.01,20.6,27.0,,00.0,0638.3,31.2
2021-12-08T01:18:00Z,00000200,01000000,0000.84,0000.28,0000.21,0000.28,0000.13,-000.12,-000.13,-000.12,-000.18,20.7,27.0,,00.0,0638.3,31.2
2021-12-08T01:19:00Z,00000200,01000000,0000.25,0000.10,0000.14,0000.59,-000.07,-000.09,-000.13,-000.07,0000.01,20.7,27.0,,00.0,0638.3,31.2
2021-12-08T01:20:00Z,00000200,01000000,0000.62,0000.16,-000.20,0000.24,0000.15,0000.08,0000.14,0000.21,-000.03,20.7,27.1,,00.0,0638.4,31.2
2021-12-08T01:21:00Z,00000200,01000000,0000.41,-000.20,0000.05,0000.12,0000.01,0000.11,-000.24,-000.33,-000.09,20.7,27.1,,00.0,0638.4,31.2
2021-12-08T01:22:00Z,00000200,01000000,0000.66,0000.51,0000.15,0000.46,0000.05,0000.23,-000.27,0000.27,-000.25,20.7,27.0,,00.0,0638.4,31.2
2021-12-08T01:23:00Z,00000200,01000000,0000.24,0000.35,-000.28,0000.27,0000.19,-000.08,0000.44,-000.38,0000.31,20.7,27.0,,00.0,0638.4,31.2
2021-12-08T01:24:00Z,00000200,01000000,0000.11,0000.16,-000.08,0000.66,0000.11,-000.05,0000.09,0000.25,-000.02,20.7,27.0,,00.0,0638.4,31.2
2021-12-08T01:25:00Z,00000200,01000000,0000.55,0000.27,-000.26,0000.86,0000.26,-000.26,0000.02,0000.06,-000.24,20.7,27.0,,00.0,0638.4,31.2
2021-12-08T01:26:00Z,00000200,01000000,0001.32,0000.35,-000.36,0000.32,-000.16,-000.22,-000.26,-000.02,0000.14,20.8,27.0,,00.0,0638.4,31.2
2021-12-08T01:27:00Z,00000200,01000000,0000.39,0000.41,-000.30,0000.45,0000.29,-000.05,-000.01,0000.07,0000.11,20.8,27.1,,00.0,0638.4,31.2
2021-12-08T01:28:00Z,00000200,01000000,0000.55,0000.06,-000.16,-000.03,-000.15,-000.37,-000.01,0000.24,0000.38,20.8,27.1,,00.0,0638.5,31.2
2021-12-08T01:29:00Z,00000200,01000000,-000.60,0000.21,-000.34,-000.06,-000.10,-000.22,0000.31,-000.10,-000.12,20.9,27.1,,00.0,0638.4,31.2
2021-12-08T01:30:00Z,00000200,01000000,0000.56,0000.10,-000.05,-000.01,0000.16,0000.11,-000.11,-000.18,-000.01,20.9,27.1,,00.0,0638.4,31.2
2021-12-08T01:31:00Z,00000200,01000000,0001.00,0000.10,-000.24,0001.10,0000.08,0000.32,0000.34,0000.08,0000.01,20.9,27.2,,00.0,0638.4,31.2
2021-12-08T01:32:00Z,00000200,01000000,-000.38,0000.06,-000.04,-000.29,0000.04,-000.12,-000.06,0000.19,-000.02,21.0,27.2,,00.0,0638.3,31.2
2021-12-08T01:33:00Z,00000200,01000000,0000.38,-000.08,0000.05,0000.28,0000.01,-000.06,-000.28,-000.05,-000.04,21.0,27.2,,00.0,0638.4,31.2
2021-12-08T01:34:00Z,00000200,01000000,0001.24,0000.10,0000.20,-000.13,0000.25,0000.18,0000.15,-000.16,0000.10,21.0,27.2,,00.0,0638.4,31.2
2021-12-08T01:35:00Z,00000200,01000000,0000.38,0000.17,0000.02,0000.31,0000.18,0000.30,0000.49,0000.39,0000.28,21.1,27.2,,00.0,0638.3,31.2
2021-12-08T01:36:00Z,00000200,01000000,0000.45,-000.31,-000.01,0000.81,-000.15,-000.04,0000.13,-000.09,0000.09,21.1,27.3,,00.0,0638.3,31.2
2021-12-08T01:37:00Z,00000200,01000000,0000.86,0000.16,-000.11,0000.49,0000.32,0000.37,-000.08,0000.50,-000.17,21.1,27.3,,00.0,0638.3,31.2
2021-12-08T01:38:00Z,00000200,01000000,-000.32,0000.08,-000.35,0000.40,0000.28,-000.21,0000.13,-000.09,0000.35,21.2,27.3,,00.0,0638.3,31.3
2021-12-08T01:39:00Z,00000200,01000000,0000.61,0000.24,-000.12,0000.49,0000.17,0000.18,-000.06,0000.27,-000.01,21.2,27.3,,00.0,0638.3,31.3
2021-12-08T01:40:00Z,00000200,01000000,0000.35,-000.01,0000.04,0000.21,0000.25,-000.21,0000.21,0000.08,0000.02,21.3,27.3,,00.0,0638.3,31.3
2021-12-08T01:41:00Z,00000200,01000000,0000.26,0000.22,0000.16,0000.74,0000.38,0000.45,0000.12,-000.10,0000.13,21.3,27.4,,00.0,0638.2,31.3
2021-12-08T01:42:00Z,00000200,01000000,0000.54,0000.23,0000.27,0000.15,0000.35,0000.08,0000.03,0000.10,-000.06,21.3,27.4,,00.0,0638.2,31.3
2021-12-08T01:43:00Z,00000200,01000000,0000.32,0000.09,0000.23,0000.16,-000.12,0000.08,-000.09,0000.10,0000.16,21.3,27.4,,00.0,0638.2,31.3
2021-12-08T01:44:00Z,00000200,01000000,0000.67,0000.13,-000.07,0000.37,0000.21,-000.25,0000.26,-000.02,0000.24,21.3,27.4,,00.0,0638.3,31.3
2021-12-08T01:45:00Z,00000200,01000000,0000.64,-000.15,0000.11,0000.08,-000.11,0000.21,-000.17,0000.04,-000.21,21.4,27.4,,00.0,0638.2,31.3
2021-12-08T01:46:00Z,00000200,01000000,0000.44,0000.23,-000.41,0001.22,0000.00,-000.18,0000.21,0000.01,-000.02,21.4,27.5,,00.0,0638.2,31.3
2021-12-08T01:47:00Z,00000200,01000000,0000.80,0000.03,-000.31,0000.55,-000.01,-000.20,0000.37,0000.38,0000.16,21.4,27.5,,00.0,0638.2,31.3
2021-12-08T01:48:00Z,00000200,01000000,0001.07,0000.15,0000.16,0000.23,0000.04,0000.20,-000.16,0000.08,0000.12,21.5,27.5,,00.0,0638.1,31.3
2021-12-08T01:49:00Z,00000200,01000000,0000.85,0000.24,0000.09,0000.70,0000.02,0000.37,-000.14,0000.09,0000.14,21.5,27.5,,00.0,0638.1,31.3
2021-12-08T01:50:00Z,00000200,01000000,0000.91,0000.12,0000.20,0000.64,0000.02,0000.36,0000.56,0000.06,-000.17,21.5,27.6,,00.0,0638.1,31.3
2021-12-08T01:51:00Z,00000200,01000000,-000.08,0000.30,0000.04,-000.03,0000.16,0000.05,0000.16,-000.03,0000.14,21.4,27.6,,00.0,0638.2,31.3
2021-12-08T01:52:00Z,00000200,01000000,0000.29,-000.08,0000.11,0000.76,-000.01,-000.13,-000.09,-000.08,0000.04,21.4,27.5,,00.0,0638.2,31.3
2021-12-08T01:53:00Z,00000200,01000000,0000.26,0000.22,-000.06,0000.41,0000.18,-000.22,-000.16,0000.20,0000.07,21.4,27.5,,00.0,0638.2,31.3
2021-12-08T01:54:00Z,00000200,01000000,0000.88,-000.08,-000.37,0000.59,0000.35,-000.28,-000.09,0000.10,0000.08,21.4,27.5,,00.0,0638.2,31.3
2021-12-08T01:55:00Z,00000200,01000000,0000.56,0000.08,0000.06,0001.08,-000.04,0000.15,0000.43,-000.11,0000.10,21.4,27.5,,00.0,0638.2,31.3
2021-12-08T01:56:00Z,00000200,01000000,0000.33,0000.48,-000.02,0000.60,0000.45,-000.16,0000.13,0000.13,-000.09,21.4,27.6,,00.0,0638.3,31.3
2021-12-08T01:57:00Z,00000200,41000000,,,,,,,-000.10,-000.12,0000.11,21.5,27.6,,00.0,0638.3,31.3
2021-12-08T01:58:00Z,00000200,61000000,,,,,,,-000.18,0000.26,-000.13,21.2,27.7,,00.0,0637.4,31.3
2021-12-08T01:59:00Z,00000200,21000000,,,,,,,-000.10,-000.05,-000.03,21.2,27.8,,00.0,0637.4,31.3
